Weather in Kularovo

Russia / Tyumen Oblast     57°57′23″N   68°47′24″E
temp.,
°C
wind,
m/s
gust,
m/s
humid.,
%
clouds,
%
prec.,
mm/h
press.,
hPa
HPBL,
m
5 march, fri
fri523:00−6sw259699 0.1 995119
02:00−7sw379698 0.1 996218
05:00−8wsw389698 0.3 997231
08:00−13s349550 0.0 997104
11:00−7s599471 0.4 995621
14:00−4sse3694100 1.0 994461
17:00−2sw2697100 1.7 997446
20:00−5sw4129387 0.3 997431
6 march, sat
sat623:00−6sw389392 0.4 998227
02:00−7ssw3695100 0.0 997149
05:00−10wsw379598 0.0 998134
08:00−11wsw4109691 0.0 998324
11:00−10wsw5109296 0.1 1000544
14:00−8wsw61185100 0.1 1002901
17:00−8wsw51085100 0.2 1003935
20:00−12wsw399188 0.1 1004239
7 march, sun
sun723:00−13wsw399569 0.1 1005192
02:00−15wsw399589 0.0 1007233
05:00−17wsw399782 0.1 1009224
08:00−19sw379886 0.0 1011169
11:00−14sw249385 0.0 1012315
14:00−10s238698 0.0 1011415
17:00−10ese259299 0.0 1009378
20:00−11ene3795100 0.5 1005296
8 march, mon
mon823:00−10ne5994100 1.6 1001392
02:00−11n5995100 1.6 997456
05:00−12nw51093100 2.3 999405
08:00−14wnw5109499 0.1 1001341
11:00−14wnw489499 0.1 1004365
14:00−11w4789100 0.0 1006589
17:00−11wsw3691100 0.1 1008534
20:00−14ssw2496100 0.1 100995
9 march, tue
tue923:00−14s2696100 0.1 1009203
02:00−14sse369693 0.1 1008163
05:00−16se249792 0.1 100887
08:00−13se369699 0.3 1007170
11:00−7s479299 0.3 1006513
14:00−6se51094100 0.3 1003617
17:00−6s61294100 1.9 999981
20:00−6ssw31091100 1.3 9961129